FDX4ED EIDW-EGLL

Flight info

Callsign FDX4ED
Flight time 1h 1m
Altitude 35000
Route PESIT2J PESIT DCT BAKUR DCT ECCIT DCT GUBJE DCT GISOK DCT TACQI DCT FONZU DCT ELRIP DCT OTMET
Aircraft B738/M-SDE2E3FGHIRWXY/LB1

Departure

Time 2026-05-06 05:45
Airport Dublin Airport (EIDW)

Arrival

Time 2026-05-06 06:46
Airport London Heathrow Airport (EGLL)
Time Latitude Longitude Altitude Speed Heading
2026-05-06 05:13 53.42419 -6.26199 210 ft 0 kts 185°
2026-05-06 05:32 53.42430 -6.26197 213 ft 4 kts 185°
2026-05-06 05:32 53.42457 -6.26193 214 ft 4 kts 185°
2026-05-06 05:32 53.42479 -6.26190 212 ft 4 kts 182°
2026-05-06 05:32 53.42502 -6.26198 211 ft 4 kts 134°
2026-05-06 05:33 53.42514 -6.26235 210 ft 4 kts 98°
2026-05-06 05:33 53.42514 -6.26230 210 ft 4 kts 95°
2026-05-06 05:33 53.42512 -6.26185 210 ft 4 kts 95°
2026-05-06 05:33 53.42509 -6.26140 213 ft 4 kts 95°
2026-05-06 05:34 53.42507 -6.26095 210 ft 4 kts 95°
2026-05-06 05:34 53.42506 -6.26083 210 ft 0 kts 95°
2026-05-06 05:36 53.42506 -6.26082 210 ft 1 kts 95°
2026-05-06 05:37 53.42504 -6.26046 211 ft 6 kts 95°
2026-05-06 05:37 53.42498 -6.25946 210 ft 11 kts 101°
2026-05-06 05:37 53.42478 -6.25809 210 ft 13 kts 70°
2026-05-06 05:37 53.42536 -6.25696 210 ft 13 kts 45°
2026-05-06 05:38 53.42587 -6.25609 210 ft 0 kts 45°
2026-05-06 05:38 53.42592 -6.25601 218 ft 3 kts 45°
2026-05-06 05:39 53.42618 -6.25556 210 ft 8 kts 46°
2026-05-06 05:39 53.42669 -6.25468 211 ft 13 kts 45°
2026-05-06 05:39 53.42740 -6.25348 214 ft 17 kts 45°
2026-05-06 05:39 53.42846 -6.25281 219 ft 18 kts 341°
2026-05-06 05:40 53.42958 -6.25362 210 ft 17 kts 336°
2026-05-06 05:40 53.43066 -6.25441 213 ft 17 kts 336°
2026-05-06 05:40 53.43170 -6.25515 210 ft 16 kts 337°
2026-05-06 05:40 53.43269 -6.25588 213 ft 15 kts 336°
2026-05-06 05:41 53.43366 -6.25649 213 ft 15 kts 360°
2026-05-06 05:41 53.43405 -6.25517 210 ft 14 kts 95°
2026-05-06 05:41 53.43396 -6.25358 210 ft 13 kts 95°
2026-05-06 05:41 53.43388 -6.25205 218 ft 13 kts 95°
2026-05-06 05:42 53.43380 -6.25057 210 ft 13 kts 95°
2026-05-06 05:42 53.43372 -6.24913 215 ft 12 kts 96°
2026-05-06 05:42 53.43364 -6.24772 216 ft 12 kts 96°
2026-05-06 05:42 53.43359 -6.24635 218 ft 12 kts 81°
2026-05-06 05:43 53.43418 -6.24559 215 ft 11 kts 10°
2026-05-06 05:43 53.43495 -6.24555 216 ft 11 kts 341°
2026-05-06 05:43 53.43528 -6.24660 219 ft 11 kts 276°
2026-05-06 05:43 53.43529 -6.24670 220 ft 0 kts 276°
2026-05-06 05:44 53.43552 -6.25074 211 ft 82 kts 275°
2026-05-06 05:45 53.43632 -6.26542 239 ft 164 kts 276°
2026-05-06 05:45 53.43747 -6.28696 730 ft 204 kts 275°
2026-05-06 05:45 53.44074 -6.31063 1719 ft 209 kts 302°
2026-05-06 05:45 53.45050 -6.32818 2881 ft 207 kts 315°
2026-05-06 05:46 53.46092 -6.34526 3692 ft 211 kts 315°
2026-05-06 05:46 53.47118 -6.36350 4288 ft 224 kts 308°
2026-05-06 05:46 53.48049 -6.38535 4903 ft 234 kts 305°
2026-05-06 05:46 53.48986 -6.40811 5626 ft 240 kts 305°
2026-05-06 05:47 53.49948 -6.43132 6383 ft 244 kts 306°
2026-05-06 05:47 53.50819 -6.45595 7097 ft 248 kts 289°
2026-05-06 05:47 53.50963 -6.48461 7896 ft 250 kts 261°
2026-05-06 05:47 53.50272 -6.51131 8649 ft 255 kts 233°
2026-05-06 05:48 53.48855 -6.53009 9015 ft 274 kts 205°
2026-05-06 05:48 53.46946 -6.53645 9041 ft 285 kts 178°
2026-05-06 05:48 53.44993 -6.53005 9062 ft 289 kts 164°
2026-05-06 05:48 53.43075 -6.51938 9049 ft 290 kts 161°
2026-05-06 05:49 53.41171 -6.50817 9050 ft 290 kts 162°
2026-05-06 05:49 53.39261 -6.49727 9050 ft 290 kts 162°
2026-05-06 05:49 53.37345 -6.48680 9049 ft 290 kts 163°
2026-05-06 05:49 53.35424 -6.47661 9050 ft 290 kts 163°
2026-05-06 05:50 53.33500 -6.46656 9049 ft 290 kts 163°
2026-05-06 05:50 53.31577 -6.45654 9054 ft 290 kts 163°
2026-05-06 05:50 53.29681 -6.44428 9212 ft 295 kts 157°
2026-05-06 05:50 53.27804 -6.42972 10069 ft 297 kts 155°
2026-05-06 05:51 53.25912 -6.41460 10746 ft 310 kts 155°
2026-05-06 05:51 53.23875 -6.39838 10935 ft 337 kts 156°
2026-05-06 05:51 53.21679 -6.38106 11147 ft 362 kts 156°
2026-05-06 05:51 53.19347 -6.36281 11567 ft 377 kts 156°
2026-05-06 05:52 53.16949 -6.34415 12263 ft 383 kts 156°
2026-05-06 05:52 53.14520 -6.32534 13040 ft 387 kts 156°
2026-05-06 05:52 53.12064 -6.30639 13792 ft 391 kts 156°
2026-05-06 05:52 53.09574 -6.28722 14475 ft 396 kts 156°
2026-05-06 05:53 53.07065 -6.26794 15175 ft 399 kts 156°
2026-05-06 05:53 53.04535 -6.24853 15853 ft 403 kts 156°
2026-05-06 05:53 53.01975 -6.22890 16517 ft 407 kts 156°
2026-05-06 05:53 52.99394 -6.20914 17190 ft 410 kts 156°
2026-05-06 05:54 52.96791 -6.18925 17845 ft 414 kts 157°
2026-05-06 05:54 52.94157 -6.16914 18465 ft 418 kts 157°
2026-05-06 05:54 52.91543 -6.14910 19014 ft 421 kts 157°
2026-05-06 05:54 52.88874 -6.12861 19580 ft 424 kts 157°
2026-05-06 05:55 52.86185 -6.10796 20138 ft 427 kts 157°
2026-05-06 05:55 52.83476 -6.08717 20674 ft 431 kts 157°
2026-05-06 05:55 52.80744 -6.06625 21197 ft 434 kts 157°
2026-05-06 05:55 52.77994 -6.04523 21713 ft 437 kts 157°
2026-05-06 05:56 52.75220 -6.02406 22210 ft 441 kts 157°
2026-05-06 05:56 52.72432 -6.00280 22719 ft 443 kts 157°
2026-05-06 05:56 52.69615 -5.98136 23045 ft 448 kts 157°
2026-05-06 05:56 52.66782 -5.95984 23026 ft 447 kts 157°
2026-05-06 05:57 52.63968 -5.93847 23034 ft 445 kts 157°
2026-05-06 05:57 52.61154 -5.91714 23043 ft 446 kts 157°
2026-05-06 05:57 52.58333 -5.89579 23041 ft 446 kts 157°
2026-05-06 05:57 52.55513 -5.87448 23033 ft 446 kts 157°
2026-05-06 05:58 52.52687 -5.85316 23031 ft 447 kts 157°
2026-05-06 05:58 52.49867 -5.83190 23032 ft 447 kts 157°
2026-05-06 05:58 52.47039 -5.81061 23030 ft 446 kts 157°
2026-05-06 05:58 52.44223 -5.78944 23031 ft 446 kts 157°
2026-05-06 05:59 52.41397 -5.76824 23029 ft 446 kts 157°
2026-05-06 05:59 52.38538 -5.74874 23041 ft 446 kts 163°
2026-05-06 05:59 52.35554 -5.73392 23404 ft 449 kts 166°
2026-05-06 05:59 52.32549 -5.72015 23958 ft 448 kts 166°
2026-05-06 06:00 52.29557 -5.70617 24447 ft 448 kts 166°
2026-05-06 06:00 52.26554 -5.69169 24810 ft 451 kts 165°
2026-05-06 06:00 52.23533 -5.67729 25155 ft 454 kts 168°
2026-05-06 06:00 52.20438 -5.66644 25526 ft 455 kts 172°
2026-05-06 06:01 52.17317 -5.65745 25913 ft 456 kts 172°
2026-05-06 06:01 52.14215 -5.64582 26244 ft 461 kts 164°
2026-05-06 06:01 52.11241 -5.62553 26578 ft 467 kts 154°
2026-05-06 06:01 52.08488 -5.59705 26925 ft 471 kts 146°
2026-05-06 06:02 52.05838 -5.56566 27261 ft 473 kts 146°
2026-05-06 06:02 52.03110 -5.53549 27557 ft 474 kts 152°
2026-05-06 06:02 52.00182 -5.51080 27862 ft 475 kts 156°
2026-05-06 06:02 51.97189 -5.48774 28169 ft 477 kts 157°
2026-05-06 06:03 51.94175 -5.46504 28487 ft 478 kts 157°
2026-05-06 06:03 51.91165 -5.44226 28902 ft 478 kts 156°
2026-05-06 06:03 51.88166 -5.41926 29370 ft 476 kts 156°
2026-05-06 06:03 51.85186 -5.39614 29838 ft 475 kts 156°
2026-05-06 06:04 51.82218 -5.37295 30225 ft 474 kts 156°
2026-05-06 06:04 51.79249 -5.34969 30558 ft 474 kts 156°
2026-05-06 06:04 51.76286 -5.32649 30927 ft 473 kts 156°
2026-05-06 06:04 51.73326 -5.30336 31305 ft 471 kts 156°
2026-05-06 06:05 51.70383 -5.28040 31659 ft 470 kts 156°
2026-05-06 06:05 51.67433 -5.25744 32015 ft 470 kts 156°
2026-05-06 06:05 51.64494 -5.23461 32373 ft 469 kts 156°
2026-05-06 06:05 51.61559 -5.21183 32724 ft 468 kts 156°
2026-05-06 06:06 51.58636 -5.18919 33069 ft 467 kts 156°
2026-05-06 06:06 51.55708 -5.16653 33409 ft 466 kts 156°
2026-05-06 06:06 51.53739 -5.15132 33642 ft 465 kts 156°
2026-05-06 06:06 51.50851 -5.12767 33967 ft 466 kts 151°
2026-05-06 06:07 51.48182 -5.09809 34215 ft 468 kts 141°
2026-05-06 06:07 51.45729 -5.06365 34473 ft 468 kts 139°
2026-05-06 06:07 51.43311 -5.02866 34716 ft 468 kts 139°
2026-05-06 06:07 51.40895 -4.99360 34960 ft 468 kts 139°
2026-05-06 06:08 51.36014 -4.92370 35002 ft 473 kts 140°
2026-05-06 06:08 51.31121 -4.85473 34998 ft 469 kts 140°
2026-05-06 06:09 51.26238 -4.78637 34995 ft 466 kts 140°
2026-05-06 06:09 51.21372 -4.71843 35000 ft 464 kts 140°
2026-05-06 06:10 51.16517 -4.65079 34997 ft 463 kts 140°
2026-05-06 06:10 51.11662 -4.58332 34999 ft 463 kts 140°
2026-05-06 06:11 51.06799 -4.51594 34995 ft 464 kts 140°
2026-05-06 06:11 51.02536 -4.43938 34990 ft 466 kts 122°
2026-05-06 06:12 50.99235 -4.35026 34987 ft 468 kts 120°
2026-05-06 06:12 50.95960 -4.26087 34988 ft 469 kts 121°
2026-05-06 06:13 50.92623 -4.17177 34986 ft 470 kts 121°
2026-05-06 06:13 50.89255 -4.08285 34989 ft 470 kts 121°
2026-05-06 06:14 50.85883 -3.99406 34988 ft 470 kts 121°
2026-05-06 06:14 50.82554 -3.90508 34983 ft 470 kts 117°
2026-05-06 06:15 50.80250 -3.80864 34991 ft 469 kts 108°
2026-05-06 06:15 50.78271 -3.71034 34987 ft 469 kts 107°
2026-05-06 06:16 50.76254 -3.61236 34996 ft 469 kts 108°
2026-05-06 06:16 50.74192 -3.51471 34994 ft 469 kts 108°
2026-05-06 06:17 50.72112 -3.41719 34994 ft 468 kts 108°
2026-05-06 06:17 50.70027 -3.31983 34995 ft 468 kts 108°
2026-05-06 06:18 50.67936 -3.22252 34991 ft 468 kts 108°
2026-05-06 06:18 50.65839 -3.12534 34986 ft 468 kts 108°
2026-05-06 06:19 50.63895 -3.02758 34973 ft 468 kts 100°
2026-05-06 06:19 50.63473 -2.97648 34455 ft 474 kts 91°
2026-05-06 06:19 50.63534 -2.92490 33854 ft 468 kts 83°
2026-05-06 06:20 50.64050 -2.87430 33024 ft 468 kts 78°
2026-05-06 06:20 50.64667 -2.82404 32250 ft 467 kts 78°
2026-05-06 06:20 50.65286 -2.77384 31476 ft 467 kts 78°
2026-05-06 06:20 50.65885 -2.72348 30680 ft 468 kts 78°
2026-05-06 06:21 50.66462 -2.67295 29828 ft 469 kts 79°
2026-05-06 06:21 50.67024 -2.62233 28857 ft 469 kts 79°
2026-05-06 06:21 50.67581 -2.57161 27929 ft 469 kts 79°
2026-05-06 06:21 50.68122 -2.52097 26973 ft 469 kts 82°
2026-05-06 06:22 50.68193 -2.47029 26710 ft 455 kts 92°
2026-05-06 06:22 50.67974 -2.42139 26372 ft 456 kts 94°
2026-05-06 06:22 50.67696 -2.37086 26075 ft 471 kts 95°
2026-05-06 06:22 50.67415 -2.31888 25753 ft 480 kts 94°
2026-05-06 06:23 50.67155 -2.26646 25415 ft 478 kts 94°
2026-05-06 06:23 50.66918 -2.21449 25093 ft 472 kts 94°
2026-05-06 06:23 50.66695 -2.16317 24777 ft 467 kts 94°
2026-05-06 06:23 50.66475 -2.11224 24474 ft 465 kts 94°
2026-05-06 06:24 50.66251 -2.06145 24171 ft 463 kts 94°
2026-05-06 06:24 50.66045 -2.01088 23861 ft 462 kts 91°
2026-05-06 06:24 50.66020 -1.96044 23558 ft 461 kts 89°
2026-05-06 06:24 50.66109 -1.90999 23200 ft 459 kts 88°
2026-05-06 06:25 50.66224 -1.85981 22864 ft 457 kts 88°
2026-05-06 06:25 50.66325 -1.80979 22545 ft 455 kts 88°
2026-05-06 06:25 50.66460 -1.71046 21935 ft 452 kts 89°
2026-05-06 06:26 50.66508 -1.66099 21627 ft 450 kts 89°
2026-05-06 06:26 50.66554 -1.61174 21329 ft 449 kts 89°
2026-05-06 06:26 50.66658 -1.56270 21017 ft 447 kts 83°
2026-05-06 06:26 50.67465 -1.51562 20571 ft 447 kts 65°
2026-05-06 06:27 50.68845 -1.47191 20117 ft 443 kts 62°
2026-05-06 06:27 50.70240 -1.42894 19634 ft 439 kts 62°
2026-05-06 06:27 50.71609 -1.38609 19171 ft 436 kts 62°
2026-05-06 06:27 50.72945 -1.34332 18714 ft 433 kts 63°
2026-05-06 06:28 50.74257 -1.30076 18252 ft 431 kts 63°
2026-05-06 06:28 50.75596 -1.25855 17719 ft 428 kts 58°
2026-05-06 06:28 50.77465 -1.22277 17244 ft 421 kts 39°
2026-05-06 06:28 50.79836 -1.19619 16817 ft 415 kts 31°
2026-05-06 06:29 50.82264 -1.17183 16353 ft 413 kts 31°
2026-05-06 06:29 50.84684 -1.14772 15907 ft 410 kts 31°
2026-05-06 06:29 50.87087 -1.12351 15471 ft 407 kts 31°
2026-05-06 06:29 50.89460 -1.09930 15040 ft 405 kts 32°
2026-05-06 06:30 50.91809 -1.07507 14600 ft 403 kts 32°
2026-05-06 06:30 50.94145 -1.05085 14175 ft 400 kts 32°
2026-05-06 06:30 50.96465 -1.02677 13734 ft 397 kts 32°
2026-05-06 06:30 50.98767 -1.00282 13267 ft 394 kts 32°
2026-05-06 06:31 51.00994 -0.97787 12812 ft 391 kts 40°
2026-05-06 06:31 51.02855 -0.94681 12464 ft 384 kts 47°
2026-05-06 06:31 51.04578 -0.91503 12082 ft 374 kts 48°
2026-05-06 06:31 51.06249 -0.88412 11717 ft 361 kts 47°
2026-05-06 06:32 51.07849 -0.85483 11375 ft 341 kts 47°
2026-05-06 06:32 51.09380 -0.82714 11048 ft 324 kts 47°
2026-05-06 06:32 51.10841 -0.80091 10760 ft 310 kts 46°
2026-05-06 06:32 51.12239 -0.77589 10464 ft 296 kts 46°
2026-05-06 06:33 51.13583 -0.75187 10216 ft 285 kts 46°
2026-05-06 06:33 51.14878 -0.72869 9942 ft 274 kts 46°
2026-05-06 06:33 51.16129 -0.70627 9677 ft 269 kts 46°
2026-05-06 06:33 51.17358 -0.68425 9417 ft 270 kts 46°
2026-05-06 06:34 51.18609 -0.66180 9151 ft 271 kts 46°
2026-05-06 06:34 51.19874 -0.63906 8885 ft 269 kts 46°
2026-05-06 06:34 51.21097 -0.61707 8630 ft 268 kts 46°
2026-05-06 06:34 51.22329 -0.59490 8370 ft 266 kts 46°
2026-05-06 06:35 51.23554 -0.57283 8114 ft 265 kts 46°
2026-05-06 06:35 51.24761 -0.55107 7865 ft 264 kts 46°
2026-05-06 06:35 51.25973 -0.52919 7611 ft 262 kts 46°
2026-05-06 06:35 51.27193 -0.50777 7361 ft 258 kts 39°
2026-05-06 06:36 51.28746 -0.49526 7100 ft 246 kts
2026-05-06 06:36 51.30351 -0.49863 7008 ft 228 kts 334°
2026-05-06 06:36 51.31554 -0.51399 6995 ft 219 kts 309°
2026-05-06 06:36 51.32272 -0.53574 7014 ft 226 kts 291°
2026-05-06 06:37 51.32740 -0.55945 7013 ft 218 kts 289°
2026-05-06 06:37 51.33151 -0.58186 6985 ft 203 kts 289°
2026-05-06 06:37 51.33542 -0.60291 6981 ft 194 kts 289°
2026-05-06 06:37 51.33924 -0.62318 6992 ft 188 kts 290°
2026-05-06 06:38 51.34303 -0.64306 6997 ft 188 kts 290°
2026-05-06 06:38 51.34707 -0.66311 6867 ft 192 kts 291°
2026-05-06 06:38 51.35151 -0.68328 6677 ft 193 kts 292°
2026-05-06 06:38 51.35617 -0.70432 6490 ft 206 kts 292°
2026-05-06 06:39 51.36099 -0.72615 6241 ft 209 kts 292°
2026-05-06 06:39 51.36581 -0.74806 5980 ft 209 kts 292°
2026-05-06 06:39 51.37280 -0.76763 5653 ft 198 kts 315°
2026-05-06 06:39 51.38355 -0.78026 5356 ft 189 kts 335°
2026-05-06 06:40 51.39598 -0.78605 5064 ft 186 kts 353°
2026-05-06 06:40 51.40894 -0.78753 4786 ft 187 kts 357°
2026-05-06 06:40 51.42195 -0.78852 4479 ft 185 kts 357°
2026-05-06 06:40 51.43454 -0.78942 4193 ft 178 kts 358°
2026-05-06 06:41 51.44673 -0.79034 3912 ft 172 kts 358°
2026-05-06 06:41 51.45841 -0.78788 3631 ft 168 kts 21°
2026-05-06 06:41 51.46744 -0.77731 3396 ft 166 kts 54°
2026-05-06 06:41 51.47078 -0.75967 3166 ft 162 kts 70°
2026-05-06 06:42 51.47330 -0.74284 2912 ft 149 kts 74°
2026-05-06 06:42 51.47474 -0.72685 2781 ft 142 kts 77°
2026-05-06 06:42 51.47600 -0.71121 2666 ft 141 kts 78°
2026-05-06 06:42 51.47670 -0.69550 2553 ft 141 kts 82°
2026-05-06 06:43 51.47697 -0.67959 2504 ft 144 kts 83°
2026-05-06 06:43 51.47708 -0.66352 2359 ft 144 kts 84°
2026-05-06 06:43 51.47713 -0.64755 2169 ft 142 kts 84°
2026-05-06 06:43 51.47716 -0.63185 1976 ft 140 kts 83°
2026-05-06 06:44 51.47719 -0.61628 1787 ft 140 kts 84°
2026-05-06 06:44 51.47722 -0.60058 1583 ft 141 kts 84°
2026-05-06 06:44 51.47725 -0.58479 1391 ft 143 kts 84°
2026-05-06 06:44 51.47730 -0.56871 1183 ft 145 kts 85°
2026-05-06 06:45 51.47718 -0.55246 913 ft 144 kts 86°
2026-05-06 06:45 51.47727 -0.53637 723 ft 146 kts 84°
2026-05-06 06:45 51.47742 -0.51995 543 ft 150 kts 88°
2026-05-06 06:45 51.47742 -0.50322 373 ft 150 kts 87°
2026-05-06 06:46 51.47749 -0.48655 126 ft 149 kts 87°
2026-05-06 06:46 51.47754 -0.47103 86 ft 121 kts 90°
2026-05-06 06:46 51.47757 -0.45997 86 ft 78 kts 89°
2026-05-06 06:46 51.47759 -0.45405 87 ft 38 kts 90°
2026-05-06 06:47 51.47686 -0.45180 86 ft 18 kts 173°
2026-05-06 06:47 51.47564 -0.45175 86 ft 17 kts 176°
2026-05-06 06:47 51.47508 -0.45037 90 ft 17 kts 90°
2026-05-06 06:47 51.47498 -0.44897 87 ft 9 kts 134°
2026-05-06 06:48 51.47438 -0.44879 86 ft 9 kts 179°
2026-05-06 06:48 51.47409 -0.44879 86 ft 0 kts 179°